RH
48 44 46 49 56 63 66 73 74 76 76 78 83 79 77 76 75 74 74 78 82 84 84 84 84 82 81
60 61 62 59 68 72 76 73 73 71 80 86 82 83 83 81 78 82 84 86 85 82 80 80 80 80 80
70 74 75 75 77 80 85 87 83 80 80 81 83 86 87 82 79 77 78 77 78 78 76 74 76 76 74
75 80 82 81 88 87 73 69 73 78 80 82 85 82 81 82 84 87 86 86 85 83 81 78 77 76 80
83 80 83 79 75 73 75 75 78 79 76 75 73 75 76 78 79 83 86 90 88 83 82 85 88 91 92
90 85 76 75 75 77 82 84 79 71 76 78 76 76 74 75 76 82 84 83 85 81 82 85 90 89 86
81 77 77 74 83 98 91 90 88 83 83 82 75 75 73 73 77 80 83 85 86 84 81 79 83 91 88
80 79 84 89 89 89 87 90 86 80 78 80 70 70 72 73 77 82 82 82 81 80 78 76 80 83 84
86 90 90 84 85 90 93 90 90 76 77 78 74 75 77 79 72 62 77 76 75 77 80 82 82 80 83
85 67 63 66 71 90 98 100 97 85 72 89 80 84 79 67 71 73 76 76 81 84 85 84 86 88 88
74 78 80 84 86 92 98 100 100 97 87 96 93 93 94 87 79 77 79 79 79 80 83 88 91 92 94
88 90 93 94 80 80 80 84 95 99 86 99 98 99 96 91 84 77 80 85 89 91 90 93 95 95 93
96 97 100 89 82 81 83 83 87 85 82 85 95 100 100 95 92 91 92 86 90 94 98 97 95 95 98
100 100 97 97 97 95 100 95 100 87 86 84 89 95 99 100 100 95 92 94 87 93 96 97 98 99 100
100 100 100 100 98 98 100 100 100 98 96 86 92 98 100 100 100 95 94 95 93 95 99 98 95 96 96
100 100 100 100 100 100 100 100 100 99 97 94 96 99 89 85 88 100 98 97 96 98 100 98 92 89 91
99 100 100 100 100 100 100 100 98 96 94 97 98 96 93 88 70 77 99 95 96 94 94 94 95 92 92
Wind_Speed
11 15 19 20 21 20 22 20 20 22 25 24 23 24 25 25 26 27 29 29 30 30 30 31 30 30 30
8 10 15 21 21 22 20 20 21 23 23 23 25 25 24 24 25 26 26 27 28 30 31 33 33 33 34
10 10 11 16 18 18 17 20 20 22 23 23 22 22 22 24 26 27 29 31 32 32 32 33 33 33 34
12 14 12 15 16 16 21 20 21 22 25 21 22 23 27 27 27 28 28 29 30 30 31 31 32 33 33
12 14 15 17 19 20 21 21 22 25 21 19 24 26 29 27 26 25 26 27 28 29 30 31 31 31 31
12 14 18 19 19 18 22 21 14 16 18 27 27 28 28 23 24 27 30 31 30 29 31 31 31 31 31
17 18 19 19 22 21 20 21 22 31 28 27 26 26 24 24 27 30 31 30 29 27 26 26 26 26 28
15 17 17 18 18 21 23 23 23 26 19 17 23 24 26 25 28 27 25 26 27 27 27 27 28 29 30
14 16 18 20 18 18 18 17 15 22 22 17 20 26 28 29 18 18 21 25 29 31 30 29 28 29 30
17 21 19 19 17 12 12 15 16 13 7 6 22 20 10 17 14 24 26 26 28 29 30 30 29 28 27
16 16 16 15 14 13 14 14 16 18 27 18 16 22 15 19 21 23 28 32 28 29 27 26 24 23 25
12 13 15 16 19 22 23 23 21 27 33 27 17 20 22 24 23 26 27 31 29 27 24 23 23 23 24
12 14 15 18 22 25 26 26 29 29 26 22 23 27 24 25 26 34 28 26 31 28 22 22 25 22 24
13 15 16 18 20 22 24 27 26 29 24 21 18 22 27 28 27 32 31 16 27 28 27 28 27 25 27
13 15 17 18 22 23 22 20 18 24 29 31 24 23 27 30 30 28 29 30 29 30 26 29 28 27 27
15 14 16 19 23 24 20 20 20 22 24 27 28 26 21 20 26 33 29 29 32 28 26 26 30 27 26
16 18 17 20 20 23 23 21 21 22 24 25 24 20 11 13 22 17 24 29 31 29 26 25 27 32 26
Wind_Direction
271 291 298 303 308 310 312 310 306 307 306 304 302 298 294 292 289 287 285 284 281 278 277 276 275 275 275
280 287 296 310 310 310 307 308 305 307 306 305 300 297 296 295 292 289 286 283 283 282 281 279 276 274 273
286 288 291 306 307 304 308 307 306 304 304 303 300 297 296 294 293 290 287 283 280 279 277 275 273 272 271
283 285 294 309 303 306 310 307 306 305 305 301 299 295 293 294 290 287 286 284 281 278 276 274 272 270 270
289 300 310 307 309 309 303 310 311 304 301 305 304 302 298 298 294 291 289 287 286 283 279 276 274 273 270
300 303 305 303 305 306 307 313 316 308 304 302 298 295 294 294 294 291 288 287 286 284 283 279 276 273 269
304 300 298 300 302 301 302 301 296 295 299 297 298 290 291 291 289 291 291 289 288 288 283 282 278 274 273
295 291 293 301 300 298 298 296 293 293 297 288 300 295 300 295 290 288 286 290 292 290 288 285 285 282 277
296 297 301 302 302 303 298 303 303 301 302 278 295 305 303 295 286 285 281 289 290 290 288 286 283 281 278
315 316 316 315 314 300 295 289 297 304 311 273 300 315 308 296 289 290 291 291 291 290 290 287 284 282 277
313 314 318 319 318 312 302 286 280 272 285 297 291 295 282 292 296 292 292 292 293 293 291 287 283 277 275
312 314 316 318 323 320 317 309 292 281 301 293 273 277 279 284 289 296 294 293 290 289 292 290 284 278 268
312 308 308 316 322 324 325 324 319 315 312 305 284 280 270 272 278 289 296 296 290 285 285 284 283 282 280
308 311 317 321 318 324 315 323 313 315 319 318 300 286 271 270 274 278 287 282 292 288 286 283 281 275 267
319 318 317 318 319 324 315 307 294 300 307 318 309 292 275 273 277 277 281 283 282 284 286 283 281 274 267
320 316 312 314 315 319 310 303 296 297 299 305 309 308 300 287 271 271 278 281 286 288 279 271 280 281 271
321 318 315 314 310 307 307 304 300 297 298 302 301 300 302 304 307 292 284 289 294 293 288 279 278 283 280